GFSNE_prec_pwat_243.txt.gz
Precipitable_Water
1.30 1.34 1.34 1.37 1.36 1.34 1.33 1.30 1.15 0.98 0.99 1.02 1.06 1.07 1.00 0.95 1.00 0.92 0.86 0.78 0.74 0.69 0.65 0.62 0.58 0.54 0.52 0.52 0.50 0.49 0.47 0.44 0.44 0.43 0.44 0.44 0.45 0.47
1.36 1.37 1.37 1.40 1.41 1.40 1.37 1.37 1.34 1.19 1.04 1.08 1.05 1.04 0.97 0.95 0.93 0.87 0.78 0.74 0.70 0.67 0.63 0.60 0.57 0.52 0.53 0.54 0.51 0.49 0.46 0.43 0.42 0.42 0.43 0.43 0.44 0.45
1.40 1.37 1.37 1.41 1.40 1.40 1.41 1.42 1.37 1.30 1.12 1.08 1.08 1.01 0.99 0.90 0.86 0.82 0.74 0.72 0.71 0.65 0.62 0.57 0.54 0.55 0.54 0.53 0.50 0.48 0.45 0.43 0.42 0.42 0.43 0.44 0.45 0.46
1.34 1.37 1.39 1.42 1.42 1.43 1.46 1.40 1.30 1.27 1.14 1.03 1.09 0.92 0.94 0.87 0.82 0.75 0.73 0.72 0.64 0.63 0.58 0.58 0.58 0.56 0.55 0.52 0.49 0.46 0.41 0.41 0.41 0.40 0.42 0.43 0.45 0.47
1.37 1.37 1.39 1.42 1.43 1.45 1.45 1.36 1.25 1.18 1.14 1.14 0.96 0.97 0.90 0.83 0.75 0.75 0.72 0.66 0.63 0.58 0.58 0.58 0.57 0.56 0.55 0.51 0.48 0.44 0.41 0.39 0.39 0.40 0.41 0.43 0.43 0.46
1.38 1.41 1.40 1.41 1.39 1.47 1.37 1.31 1.24 1.13 1.15 1.06 0.91 0.93 0.80 0.76 0.72 0.67 0.63 0.62 0.56 0.57 0.59 0.55 0.55 0.54 0.52 0.48 0.46 0.44 0.40 0.38 0.38 0.38 0.39 0.40 0.40 0.42
1.34 1.36 1.39 1.41 1.41 1.43 1.29 1.20 1.18 1.11 1.09 1.01 0.90 0.83 0.72 0.70 0.66 0.68 0.60 0.58 0.55 0.57 0.53 0.51 0.50 0.50 0.47 0.46 0.44 0.40 0.37 0.36 0.37 0.38 0.39 0.38 0.38 0.41
1.21 1.35 1.37 1.35 1.34 1.34 1.27 1.22 1.16 1.12 1.06 0.93 0.86 0.78 0.68 0.72 0.71 0.65 0.59 0.51 0.45 0.57 0.50 0.46 0.49 0.44 0.43 0.43 0.42 0.39 0.36 0.36 0.37 0.38 0.37 0.37 0.38 0.41
1.17 1.11 1.19 1.24 1.25 1.23 1.18 1.12 1.07 1.09 1.02 0.88 0.82 0.75 0.71 0.72 0.69 0.62 0.57 0.52 0.50 0.52 0.49 0.40 0.43 0.38 0.40 0.40 0.40 0.38 0.37 0.36 0.36 0.37 0.36 0.36 0.37 0.40
1.08 1.18 1.04 1.09 1.17 1.11 1.08 1.02 1.05 1.07 1.01 0.93 0.83 0.80 0.78 0.75 0.69 0.62 0.57 0.56 0.53 0.52 0.48 0.35 0.38 0.33 0.36 0.38 0.39 0.38 0.37 0.36 0.36 0.35 0.35 0.35 0.37 0.41
1.00 1.07 1.01 1.10 1.13 1.10 1.05 1.02 1.05 0.98 0.96 0.89 0.87 0.83 0.78 0.74 0.69 0.62 0.56 0.51 0.45 0.43 0.44 0.36 0.34 0.31 0.34 0.35 0.37 0.36 0.35 0.35 0.34 0.33 0.34 0.35 0.37 0.43
0.98 1.17 1.06 1.06 1.08 1.07 1.05 1.04 0.95 0.87 0.84 0.85 0.82 0.76 0.76 0.71 0.68 0.64 0.58 0.46 0.41 0.38 0.40 0.34 0.33 0.32 0.25 0.33 0.35 0.34 0.34 0.33 0.33 0.33 0.34 0.35 0.37 0.43
1.03 1.03 1.08 1.07 1.02 1.04 1.04 0.94 0.81 0.87 0.87 0.86 0.76 0.73 0.71 0.70 0.71 0.66 0.56 0.48 0.41 0.37 0.39 0.37 0.33 0.32 0.30 0.29 0.32 0.32 0.32 0.30 0.31 0.32 0.33 0.35 0.39 0.42
0.97 1.00 1.02 1.00 1.03 1.02 0.95 0.92 0.89 0.89 0.85 0.75 0.70 0.68 0.74 0.73 0.64 0.57 0.54 0.50 0.47 0.41 0.40 0.38 0.33 0.32 0.30 0.26 0.24 0.28 0.30 0.31 0.31 0.30 0.31 0.35 0.39 0.44
0.94 0.96 0.96 1.00 1.01 0.95 0.95 0.94 0.90 0.83 0.76 0.68 0.72 0.77 0.75 0.63 0.58 0.56 0.54 0.50 0.47 0.43 0.40 0.38 0.34 0.34 0.30 0.25 0.24 0.26 0.26 0.29 0.31 0.30 0.32 0.33 0.36 0.43
0.92 0.92 0.94 0.98 0.98 0.94 0.93 0.87 0.82 0.78 0.77 0.78 0.77 0.71 0.64 0.60 0.55 0.54 0.48 0.46 0.40 0.36 0.38 0.36 0.34 0.31 0.27 0.27 0.27 0.26 0.29 0.27 0.32 0.34 0.35 0.36 0.39 0.42
0.92 0.92 0.88 0.89 0.87 0.86 0.84 0.80 0.80 0.79 0.77 0.77 0.72 0.64 0.60 0.56 0.50 0.48 0.43 0.40 0.33 0.30 0.28 0.31 0.32 0.31 0.29 0.27 0.25 0.28 0.29 0.31 0.34 0.36 0.38 0.37 0.40 0.41
0.86 0.83 0.84 0.83 0.84 0.78 0.73 0.75 0.78 0.76 0.75 0.71 0.66 0.60 0.53 0.49 0.45 0.42 0.38 0.34 0.28 0.27 0.25 0.28 0.28 0.27 0.26 0.26 0.31 0.28 0.30 0.32 0.35 0.38 0.40 0.38 0.39 0.43
0.77 0.78 0.77 0.76 0.73 0.71 0.74 0.77 0.72 0.73 0.71 0.65 0.59 0.53 0.50 0.45 0.40 0.36 0.33 0.29 0.26 0.24 0.24 0.25 0.25 0.23 0.18 0.18 0.27 0.34 0.30 0.33 0.34 0.36 0.38 0.39 0.39 0.42
0.75 0.75 0.74 0.72 0.68 0.75 0.75 0.73 0.72 0.70 0.63 0.58 0.54 0.49 0.45 0.40 0.35 0.31 0.29 0.26 0.23 0.22 0.22 0.23 0.23 0.23 0.21 0.21 0.23 0.29 0.36 0.33 0.34 0.33 0.35 0.38 0.41 0.43
0.72 0.72 0.71 0.71 0.72 0.71 0.73 0.72 0.67 0.61 0.58 0.55 0.49 0.44 0.41 0.36 0.31 0.29 0.26 0.24 0.22 0.22 0.20 0.20 0.23 0.26 0.27 0.27 0.25 0.27 0.32 0.37 0.37 0.34 0.34 0.34 0.35 0.36
0.72 0.70 0.70 0.70 0.69 0.70 0.70 0.67 0.61 0.58 0.52 0.49 0.45 0.41 0.36 0.31 0.27 0.25 0.24 0.22 0.22 0.22 0.23 0.25 0.27 0.24 0.24 0.24 0.23 0.26 0.28 0.33 0.37 0.38 0.39 0.38 0.35 0.31
0.69 0.71 0.69 0.68 0.67 0.68 0.67 0.63 0.57 0.52 0.48 0.43 0.39 0.35 0.31 0.27 0.26 0.24 0.23 0.22 0.23 0.22 0.22 0.22 0.23 0.25 0.24 0.24 0.24 0.26 0.27 0.29 0.31 0.32 0.33 0.36 0.37 0.38

GFSNE_prec_pwat_249.txt.gz
Precipitable_Water
1.46 1.44 1.36 1.36 1.35 1.33 1.29 1.28 1.19 1.07 1.05 1.15 1.18 1.29 1.29 1.29 1.31 1.27 1.24 1.19 1.15 1.13 1.03 0.95 0.78 0.77 0.77 0.68 0.62 0.59 0.57 0.55 0.51 0.49 0.48 0.47 0.43 0.42
1.56 1.52 1.47 1.47 1.45 1.37 1.25 1.30 1.35 1.32 1.16 1.27 1.23 1.30 1.34 1.34 1.33 1.25 1.17 1.18 1.17 1.10 1.01 0.92 0.81 0.76 0.74 0.66 0.63 0.60 0.57 0.55 0.51 0.49 0.47 0.44 0.41 0.40
1.53 1.51 1.42 1.47 1.38 1.40 1.43 1.45 1.37 1.35 1.25 1.28 1.32 1.37 1.33 1.35 1.35 1.30 1.16 1.14 1.17 1.11 1.04 0.89 0.82 0.76 0.74 0.67 0.63 0.60 0.57 0.54 0.51 0.47 0.43 0.42 0.39 0.37
1.43 1.42 1.36 1.36 1.39 1.49 1.44 1.39 1.45 1.45 1.36 1.24 1.30 1.31 1.35 1.46 1.30 1.23 1.15 1.14 1.11 1.08 0.98 0.87 0.79 0.78 0.75 0.66 0.62 0.59 0.55 0.52 0.48 0.44 0.40 0.38 0.35 0.33
1.44 1.39 1.30 1.39 1.39 1.48 1.44 1.41 1.41 1.48 1.41 1.34 1.28 1.35 1.35 1.34 1.27 1.20 1.13 1.09 1.07 1.00 0.93 0.85 0.82 0.82 0.74 0.64 0.61 0.58 0.54 0.50 0.46 0.41 0.38 0.35 0.33 0.31
1.40 1.36 1.37 1.40 1.44 1.50 1.42 1.46 1.50 1.39 1.33 1.32 1.28 1.29 1.28 1.28 1.21 1.12 1.06 1.05 0.99 0.93 0.89 0.82 0.81 0.78 0.71 0.63 0.60 0.58 0.52 0.47 0.42 0.37 0.35 0.32 0.30 0.29
1.38 1.42 1.47 1.47 1.51 1.53 1.49 1.40 1.34 1.23 1.16 1.21 1.20 1.19 1.16 1.14 1.12 1.12 1.00 0.98 0.93 0.86 0.79 0.80 0.78 0.73 0.64 0.60 0.60 0.57 0.49 0.44 0.39 0.35 0.33 0.32 0.31 0.30
1.27 1.38 1.44 1.46 1.45 1.49 1.44 1.41 1.32 1.17 1.10 1.18 1.16 1.13 1.13 1.10 1.10 1.01 0.97 0.88 0.76 0.85 0.76 0.81 0.75 0.65 0.62 0.61 0.59 0.52 0.45 0.41 0.37 0.34 0.33 0.31 0.30 0.31
1.22 1.27 1.25 1.35 1.37 1.39 1.38 1.35 1.27 1.21 1.15 1.19 1.08 1.09 1.05 1.16 1.01 0.96 0.92 0.82 0.77 0.75 0.81 0.80 0.72 0.62 0.63 0.60 0.57 0.49 0.43 0.38 0.37 0.35 0.33 0.31 0.31 0.31
1.03 1.07 1.13 1.15 1.20 1.22 1.21 1.20 1.19 1.18 1.16 1.11 1.11 1.09 1.10 1.03 0.95 0.98 0.89 0.80 0.77 0.83 0.86 0.66 0.64 0.60 0.60 0.59 0.56 0.45 0.41 0.39 0.37 0.34 0.32 0.32 0.31 0.30
0.93 0.97 0.97 1.00 1.07 1.11 1.04 1.02 0.98 1.03 1.03 1.04 1.02 0.97 0.94 1.00 0.96 0.92 0.82 0.82 0.77 0.80 0.77 0.69 0.65 0.60 0.54 0.50 0.47 0.43 0.39 0.37 0.34 0.33 0.32 0.31 0.30 0.31
0.81 0.89 0.95 0.96 1.00 1.01 0.99 0.98 0.92 0.87 1.03 0.98 0.94 0.86 0.84 0.91 0.93 0.94 0.87 0.76 0.79 0.75 0.80 0.64 0.56 0.50 0.40 0.44 0.42 0.38 0.36 0.34 0.33 0.31 0.30 0.30 0.31 0.30
0.67 0.75 0.87 0.95 0.97 0.97 0.98 0.91 0.92 0.90 0.90 0.93 0.85 0.88 0.93 0.89 0.92 0.92 0.88 0.86 0.79 0.74 0.66 0.59 0.50 0.45 0.40 0.36 0.37 0.34 0.33 0.31 0.30 0.30 0.30 0.30 0.32 0.33
0.56 0.66 0.79 0.88 0.90 0.94 0.96 0.92 0.98 0.89 0.87 0.86 0.83 0.79 0.84 0.85 0.88 0.88 0.87 0.82 0.77 0.64 0.60 0.55 0.47 0.42 0.36 0.31 0.28 0.31 0.31 0.30 0.30 0.29 0.29 0.31 0.32 0.35
0.57 0.62 0.69 0.77 0.81 0.81 0.88 0.88 0.93 0.89 0.90 0.85 0.82 0.81 0.86 0.86 0.87 0.82 0.82 0.77 0.69 0.62 0.57 0.53 0.46 0.40 0.34 0.29 0.27 0.26 0.26 0.29 0.31 0.30 0.29 0.29 0.30 0.35
0.50 0.56 0.62 0.68 0.72 0.75 0.76 0.82 0.87 0.88 0.86 0.81 0.82 0.83 0.85 0.81 0.78 0.78 0.73 0.64 0.57 0.53 0.54 0.51 0.43 0.37 0.30 0.29 0.27 0.25 0.28 0.26 0.31 0.31 0.31 0.32 0.34 0.37
0.47 0.48 0.56 0.58 0.62 0.65 0.68 0.73 0.78 0.83 0.78 0.79 0.81 0.79 0.78 0.75 0.73 0.72 0.65 0.60 0.52 0.46 0.42 0.39 0.38 0.34 0.31 0.29 0.25 0.27 0.27 0.28 0.31 0.32 0.33 0.34 0.35 0.38
0.45 0.43 0.45 0.53 0.58 0.64 0.63 0.68 0.72 0.75 0.77 0.77 0.78 0.75 0.72 0.70 0.69 0.68 0.62 0.52 0.47 0.42 0.37 0.34 0.31 0.28 0.26 0.27 0.29 0.26 0.27 0.28 0.30 0.32 0.34 0.33 0.34 0.38
0.42 0.42 0.44 0.48 0.54 0.61 0.66 0.66 0.68 0.71 0.77 0.74 0.74 0.73 0.71 0.68 0.63 0.57 0.54 0.47 0.40 0.37 0.34 0.31 0.28 0.24 0.19 0.17 0.24 0.30 0.26 0.28 0.30 0.31 0.32 0.33 0.33 0.36
0.43 0.42 0.43 0.49 0.53 0.58 0.66 0.67 0.68 0.69 0.71 0.74 0.72 0.70 0.68 0.63 0.57 0.52 0.45 0.39 0.35 0.31 0.27 0.27 0.26 0.22 0.19 0.18 0.20 0.26 0.31 0.29 0.29 0.29 0.30 0.33 0.36 0.39
0.41 0.42 0.46 0.50 0.54 0.58 0.65 0.67 0.71 0.68 0.68 0.69 0.68 0.66 0.64 0.59 0.53 0.47 0.40 0.35 0.30 0.27 0.23 0.21 0.23 0.25 0.24 0.24 0.21 0.23 0.28 0.34 0.33 0.31 0.31 0.30 0.30 0.33
0.41 0.42 0.46 0.50 0.56 0.58 0.62 0.65 0.69 0.67 0.64 0.65 0.65 0.63 0.61 0.55 0.46 0.40 0.35 0.28 0.25 0.23 0.21 0.23 0.23 0.23 0.22 0.21 0.20 0.22 0.25 0.29 0.33 0.35 0.35 0.34 0.29 0.28
0.44 0.45 0.47 0.48 0.58 0.57 0.59 0.64 0.62 0.65 0.63 0.62 0.60 0.59 0.54 0.46 0.41 0.35 0.30 0.26 0.24 0.21 0.21 0.21 0.22 0.22 0.22 0.22 0.22 0.22 0.24 0.26 0.28 0.28 0.31 0.34 0.34 0.35

GFSNE_prec_pwat_252.txt.gz
Precipitable_Water
1.50 1.52 1.52 1.57 1.59 1.54 1.40 1.37 1.29 1.14 1.11 1.13 1.05 1.17 1.29 1.36 1.47 1.47 1.48 1.44 1.35 1.25 1.18 1.16 1.13 1.10 1.03 0.93 0.84 0.81 0.76 0.66 0.62 0.59 0.56 0.54 0.52 0.49
1.69 1.63 1.58 1.56 1.50 1.41 1.37 1.33 1.40 1.33 1.14 1.31 1.31 1.31 1.29 1.34 1.37 1.32 1.41 1.40 1.32 1.26 1.23 1.17 1.10 1.12 1.03 0.92 0.84 0.83 0.77 0.67 0.62 0.58 0.55 0.54 0.51 0.47
1.57 1.54 1.55 1.53 1.44 1.42 1.46 1.39 1.40 1.39 1.22 1.32 1.38 1.42 1.39 1.34 1.34 1.37 1.38 1.35 1.33 1.23 1.15 1.12 1.09 1.11 1.02 0.91 0.85 0.84 0.78 0.68 0.61 0.57 0.55 0.52 0.48 0.44
1.39 1.49 1.46 1.52 1.45 1.46 1.40 1.38 1.35 1.36 1.33 1.26 1.37 1.35 1.33 1.36 1.36 1.34 1.39 1.39 1.30 1.23 1.15 1.12 1.07 1.06 0.96 0.84 0.84 0.84 0.76 0.66 0.60 0.57 0.53 0.50 0.44 0.38
1.37 1.32 1.29 1.31 1.28 1.27 1.35 1.39 1.40 1.37 1.39 1.36 1.30 1.27 1.28 1.38 1.34 1.33 1.31 1.29 1.28 1.19 1.14 1.10 1.07 1.01 0.92 0.87 0.84 0.81 0.74 0.64 0.60 0.56 0.51 0.46 0.39 0.35
1.35 1.29 1.28 1.25 1.22 1.30 1.34 1.36 1.37 1.32 1.36 1.38 1.33 1.31 1.28 1.24 1.25 1.21 1.17 1.20 1.15 1.16 1.10 1.04 1.03 0.99 0.81 0.85 0.85 0.79 0.69 0.65 0.59 0.53 0.49 0.42 0.36 0.34
1.24 1.24 1.25 1.27 1.31 1.37 1.41 1.41 1.40 1.36 1.35 1.24 1.18 1.14 1.08 1.02 1.12 1.18 1.13 1.12 1.08 1.10 1.00 1.05 0.94 0.87 0.83 0.83 0.86 0.70 0.65 0.62 0.57 0.52 0.48 0.39 0.36 0.36
1.09 1.14 1.19 1.22 1.24 1.35 1.42 1.49 1.49 1.38 1.26 1.24 1.22 1.10 1.03 1.03 1.12 1.15 1.03 0.95 1.03 1.06 0.98 0.93 0.88 0.87 0.84 0.87 0.84 0.73 0.64 0.59 0.54 0.49 0.43 0.38 0.37 0.36
0.93 0.98 0.99 1.05 1.12 1.18 1.25 1.29 1.32 1.36 1.36 1.27 1.17 1.15 1.08 1.09 1.04 1.10 1.01 0.98 0.91 0.96 0.88 0.87 0.90 0.86 0.90 0.91 0.80 0.66 0.62 0.57 0.50 0.45 0.39 0.37 0.35 0.33
0.70 0.80 0.86 0.92 0.97 0.97 0.98 1.02 1.09 1.13 1.12 1.10 1.08 1.11 1.09 1.10 1.07 1.02 0.96 0.92 0.92 0.82 0.91 0.76 0.88 0.86 0.84 0.75 0.72 0.63 0.55 0.49 0.43 0.40 0.37 0.35 0.33 0.33
0.56 0.63 0.76 0.81 0.91 0.94 0.91 0.86 0.85 0.89 0.99 1.02 1.05 1.03 1.02 0.99 1.02 0.96 0.86 0.80 0.72 0.75 0.85 0.84 0.83 0.79 0.77 0.67 0.61 0.55 0.50 0.43 0.41 0.38 0.35 0.34 0.33 0.32
0.51 0.52 0.62 0.73 0.85 0.90 0.89 0.88 0.83 0.84 0.93 0.91 0.94 0.96 0.94 0.91 0.98 0.93 0.87 0.74 0.80 0.81 0.86 0.80 0.79 0.70 0.58 0.58 0.54 0.49 0.44 0.42 0.37 0.35 0.34 0.32 0.32 0.33
0.48 0.48 0.52 0.61 0.70 0.80 0.87 0.88 0.89 0.92 0.90 0.92 0.91 0.89 0.87 0.85 0.86 0.90 0.88 0.83 0.77 0.79 0.84 0.81 0.67 0.58 0.51 0.48 0.48 0.45 0.42 0.38 0.36 0.33 0.32 0.31 0.33 0.36
0.44 0.48 0.51 0.59 0.64 0.66 0.74 0.80 0.82 0.83 0.89 0.89 0.86 0.87 0.92 0.88 0.85 0.84 0.85 0.86 0.87 0.82 0.80 0.70 0.59 0.53 0.48 0.43 0.38 0.39 0.37 0.37 0.34 0.30 0.30 0.32 0.34 0.38
0.45 0.46 0.48 0.54 0.59 0.61 0.65 0.71 0.73 0.73 0.74 0.79 0.78 0.86 0.88 0.83 0.89 0.88 0.82 0.80 0.81 0.76 0.71 0.65 0.55 0.50 0.45 0.37 0.33 0.34 0.31 0.31 0.33 0.31 0.31 0.30 0.32 0.38
0.45 0.44 0.45 0.48 0.49 0.54 0.57 0.59 0.62 0.70 0.70 0.71 0.72 0.79 0.79 0.83 0.78 0.75 0.73 0.74 0.68 0.64 0.63 0.58 0.52 0.49 0.41 0.37 0.34 0.29 0.30 0.27 0.31 0.32 0.32 0.32 0.34 0.38
0.46 0.42 0.39 0.41 0.42 0.44 0.48 0.51 0.58 0.65 0.64 0.67 0.66 0.68 0.75 0.72 0.70 0.72 0.72 0.65 0.59 0.55 0.51 0.51 0.49 0.44 0.40 0.36 0.29 0.29 0.28 0.28 0.30 0.31 0.31 0.29 0.32 0.37
0.43 0.39 0.37 0.38 0.39 0.43 0.45 0.48 0.53 0.58 0.63 0.66 0.65 0.66 0.64 0.66 0.67 0.67 0.66 0.61 0.57 0.52 0.47 0.44 0.40 0.37 0.34 0.33 0.33 0.28 0.27 0.27 0.29 0.30 0.30 0.29 0.30 0.35
0.44 0.41 0.39 0.39 0.40 0.44 0.47 0.49 0.51 0.59 0.65 0.66 0.66 0.65 0.64 0.65 0.65 0.63 0.62 0.57 0.52 0.47 0.43 0.41 0.37 0.31 0.25 0.22 0.27 0.31 0.26 0.27 0.27 0.27 0.29 0.29 0.30 0.35
0.47 0.44 0.41 0.41 0.42 0.43 0.48 0.51 0.53 0.56 0.64 0.65 0.66 0.65 0.63 0.63 0.64 0.61 0.57 0.51 0.45 0.41 0.38 0.37 0.33 0.29 0.25 0.23 0.22 0.26 0.30 0.27 0.26 0.26 0.27 0.30 0.34 0.38
0.50 0.48 0.46 0.45 0.44 0.45 0.45 0.54 0.56 0.56 0.60 0.62 0.63 0.63 0.62 0.61 0.59 0.59 0.53 0.46 0.41 0.37 0.33 0.31 0.30 0.30 0.29 0.27 0.22 0.22 0.27 0.31 0.30 0.28 0.28 0.28 0.28 0.31
0.53 0.51 0.48 0.47 0.45 0.45 0.46 0.51 0.58 0.56 0.59 0.62 0.62 0.61 0.61 0.59 0.56 0.52 0.47 0.40 0.37 0.34 0.31 0.31 0.30 0.28 0.25 0.22 0.20 0.21 0.24 0.28 0.32 0.32 0.33 0.31 0.28 0.26
0.50 0.51 0.50 0.47 0.46 0.46 0.47 0.48 0.56 0.56 0.56 0.58 0.59 0.58 0.58 0.55 0.52 0.46 0.42 0.38 0.34 0.30 0.29 0.27 0.25 0.24 0.22 0.22 0.21 0.22 0.23 0.24 0.27 0.28 0.30 0.34 0.34 0.34

GFSNE_prec_pwat_255.txt.gz
Precipitable_Water
1.53 1.56 1.55 1.55 1.59 1.57 1.60 1.61 1.39 1.15 1.20 1.29 1.28 1.35 1.38 1.41 1.45 1.49 1.49 1.50 1.54 1.47 1.41 1.41 1.34 1.29 1.21 1.14 1.11 1.07 1.03 0.93 0.84 0.82 0.79 0.70 0.64 0.61
1.63 1.55 1.55 1.58 1.62 1.64 1.59 1.55 1.57 1.38 1.28 1.37 1.43 1.40 1.39 1.36 1.41 1.48 1.52 1.53 1.52 1.52 1.41 1.38 1.25 1.20 1.13 1.08 1.08 1.04 0.99 0.90 0.82 0.80 0.80 0.70 0.64 0.60
1.43 1.37 1.39 1.45 1.39 1.56 1.57 1.47 1.48 1.53 1.35 1.41 1.51 1.46 1.35 1.34 1.37 1.41 1.40 1.44 1.43 1.44 1.44 1.38 1.27 1.23 1.13 1.07 1.06 1.05 0.98 0.90 0.85 0.80 0.73 0.65 0.59 0.59
1.38 1.27 1.19 1.26 1.30 1.39 1.45 1.33 1.42 1.48 1.32 1.20 1.35 1.34 1.27 1.33 1.35 1.33 1.32 1.35 1.37 1.40 1.34 1.28 1.21 1.14 1.10 1.08 1.04 1.00 0.94 0.89 0.85 0.78 0.74 0.66 0.59 0.57
1.50 1.22 1.11 1.22 1.33 1.37 1.38 1.34 1.39 1.40 1.38 1.24 1.25 1.27 1.25 1.33 1.34 1.38 1.36 1.32 1.27 1.30 1.27 1.21 1.15 1.22 1.11 1.08 1.06 1.01 0.92 0.87 0.83 0.74 0.70 0.66 0.58 0.54
1.45 1.41 1.38 1.39 1.36 1.32 1.29 1.29 1.35 1.32 1.31 1.27 1.23 1.23 1.26 1.34 1.32 1.22 1.16 1.14 1.11 1.18 1.14 1.17 1.12 1.12 1.10 1.08 1.02 0.94 0.93 0.93 0.86 0.79 0.70 0.62 0.58 0.53
1.37 1.36 1.39 1.42 1.43 1.39 1.29 1.23 1.24 1.23 1.26 1.26 1.23 1.22 1.25 1.24 1.23 1.22 1.14 1.11 1.06 1.10 1.07 1.09 1.09 1.05 1.05 0.92 0.94 0.97 0.99 0.96 0.89 0.72 0.64 0.59 0.54 0.48
1.12 1.24 1.27 1.29 1.30 1.27 1.25 1.24 1.18 1.12 1.17 1.24 1.22 1.18 1.19 1.23 1.23 1.16 1.06 0.96 0.91 1.03 0.98 1.00 0.98 0.95 0.87 0.93 0.91 0.93 0.88 0.77 0.69 0.64 0.57 0.52 0.45 0.42
0.72 0.78 0.92 1.08 1.15 1.16 1.16 1.10 1.07 1.14 1.16 1.14 1.05 1.07 1.10 1.18 1.13 0.98 0.93 0.93 0.89 0.91 0.90 0.82 0.86 0.83 0.89 0.85 0.89 0.86 0.74 0.71 0.62 0.56 0.52 0.46 0.42 0.40
0.67 0.67 0.67 0.73 0.88 0.92 0.98 1.00 0.99 0.99 1.02 1.06 1.10 1.10 1.11 1.06 1.03 0.98 0.92 0.87 0.84 0.85 0.88 0.80 0.84 0.79 0.82 0.89 0.86 0.78 0.69 0.61 0.55 0.51 0.47 0.43 0.42 0.41
0.61 0.62 0.63 0.62 0.68 0.79 0.81 0.81 0.86 0.87 0.95 1.00 1.06 1.05 1.06 1.07 1.00 1.00 0.87 0.82 0.74 0.76 0.81 0.78 0.74 0.75 0.80 0.82 0.77 0.67 0.61 0.56 0.52 0.47 0.44 0.42 0.41 0.42
0.57 0.58 0.60 0.61 0.63 0.70 0.73 0.77 0.76 0.83 0.86 0.88 0.93 0.92 0.98 0.98 0.95 0.95 0.96 0.82 0.81 0.70 0.78 0.76 0.77 0.79 0.72 0.74 0.65 0.60 0.56 0.53 0.50 0.46 0.41 0.39 0.39 0.41
0.50 0.47 0.50 0.57 0.58 0.65 0.67 0.68 0.71 0.78 0.78 0.82 0.86 0.87 0.88 0.87 0.87 0.87 0.90 0.87 0.84 0.81 0.85 0.83 0.78 0.77 0.70 0.58 0.55 0.57 0.56 0.51 0.45 0.41 0.39 0.38 0.39 0.41
0.46 0.46 0.46 0.49 0.51 0.57 0.65 0.65 0.64 0.66 0.67 0.70 0.73 0.73 0.74 0.76 0.79 0.81 0.83 0.91 0.91 0.86 0.90 0.87 0.77 0.68 0.57 0.55 0.52 0.54 0.52 0.47 0.41 0.37 0.38 0.40 0.41 0.43
0.48 0.46 0.45 0.45 0.45 0.48 0.57 0.61 0.61 0.59 0.61 0.64 0.67 0.68 0.68 0.74 0.73 0.74 0.80 0.79 0.79 0.79 0.80 0.76 0.66 0.62 0.57 0.50 0.46 0.48 0.44 0.40 0.39 0.36 0.37 0.39 0.40 0.42
0.49 0.48 0.45 0.44 0.43 0.44 0.45 0.49 0.53 0.57 0.61 0.61 0.61 0.66 0.69 0.68 0.64 0.68 0.66 0.70 0.65 0.63 0.66 0.65 0.62 0.58 0.50 0.49 0.48 0.42 0.40 0.35 0.37 0.36 0.37 0.38 0.40 0.42
0.49 0.46 0.42 0.40 0.38 0.39 0.41 0.42 0.47 0.53 0.55 0.55 0.59 0.62 0.62 0.63 0.64 0.63 0.61 0.59 0.57 0.56 0.55 0.58 0.57 0.55 0.52 0.48 0.40 0.38 0.36 0.34 0.36 0.36 0.35 0.34 0.36 0.38
0.46 0.42 0.40 0.40 0.38 0.38 0.39 0.40 0.43 0.49 0.51 0.52 0.57 0.58 0.57 0.59 0.60 0.60 0.59 0.55 0.52 0.51 0.53 0.52 0.52 0.48 0.44 0.42 0.42 0.35 0.34 0.33 0.34 0.35 0.35 0.31 0.31 0.35
0.43 0.44 0.43 0.43 0.43 0.41 0.41 0.41 0.43 0.48 0.52 0.54 0.55 0.56 0.55 0.59 0.59 0.56 0.55 0.53 0.51 0.53 0.53 0.53 0.47 0.41 0.34 0.30 0.35 0.38 0.33 0.32 0.32 0.31 0.31 0.30 0.29 0.32
0.46 0.47 0.47 0.48 0.47 0.45 0.44 0.43 0.44 0.46 0.49 0.54 0.54 0.56 0.55 0.58 0.58 0.57 0.55 0.53 0.53 0.51 0.48 0.47 0.43 0.39 0.35 0.30 0.29 0.32 0.35 0.32 0.31 0.29 0.28 0.30 0.32 0.35
0.51 0.52 0.54 0.53 0.52 0.50 0.46 0.45 0.45 0.46 0.47 0.53 0.54 0.53 0.53 0.56 0.56 0.58 0.57 0.54 0.51 0.45 0.41 0.41 0.40 0.40 0.38 0.36 0.31 0.29 0.31 0.34 0.33 0.30 0.29 0.28 0.27 0.28
0.56 0.55 0.56 0.57 0.56 0.54 0.50 0.46 0.45 0.46 0.46 0.47 0.53 0.54 0.55 0.55 0.54 0.54 0.54 0.51 0.45 0.42 0.39 0.39 0.38 0.37 0.34 0.32 0.28 0.27 0.28 0.31 0.32 0.31 0.31 0.31 0.28 0.25
0.55 0.55 0.55 0.57 0.57 0.55 0.51 0.47 0.45 0.45 0.47 0.48 0.53 0.54 0.52 0.47 0.50 0.52 0.50 0.46 0.42 0.38 0.36 0.34 0.34 0.34 0.31 0.29 0.27 0.26 0.26 0.27 0.27 0.27 0.28 0.31 0.32 0.32